LNI26 OEJN-HAAB

Flight info

Callsign LNI26
Flight time N/A
Altitude 37000
Route RIBAM G650 RASKA/N0465F380 UG650 KONET/N0462F370 DCT EKBOB/N0461F380 UT114 MEKEL MEKEL1A
Aircraft A339/H-SADE1E2E3GHIJ3J5M1P2RWXY/LB2D1

Departure

Time 2026-04-29 06:54
Airport King Abdulaziz International Airport (OEJN)

Arrival

Time N/A
Airport Addis Ababa Bole International Airport (HAAB)
Time Latitude Longitude Altitude Speed Heading
2026-04-29 06:37 21.66803 39.16987 61 ft 0 kts 70°
2026-04-29 06:42 21.66802 39.16985 61 ft 2 kts 70°
2026-04-29 06:43 21.66797 39.16969 61 ft 2 kts 70°
2026-04-29 06:43 21.66792 39.16955 61 ft 2 kts 70°
2026-04-29 06:43 21.66787 39.16941 61 ft 2 kts 70°
2026-04-29 06:43 21.66783 39.16927 61 ft 2 kts 70°
2026-04-29 06:44 21.66778 39.16913 61 ft 2 kts 70°
2026-04-29 06:44 21.66773 39.16898 61 ft 2 kts 76°
2026-04-29 06:44 21.66772 39.16883 61 ft 2 kts 99°
2026-04-29 06:44 21.66776 39.16868 61 ft 2 kts 119°
2026-04-29 06:45 21.66785 39.16855 61 ft 2 kts 139°
2026-04-29 06:45 21.66790 39.16851 61 ft 1 kts 146°
2026-04-29 06:45 21.66792 39.16850 61 ft 0 kts 145°
2026-04-29 06:47 21.66788 39.16852 61 ft 1 kts 145°
2026-04-29 06:48 21.66773 39.16864 61 ft 3 kts 145°
2026-04-29 06:48 21.66747 39.16878 61 ft 4 kts 169°
2026-04-29 06:48 21.66719 39.16860 61 ft 5 kts 230°
2026-04-29 06:48 21.66699 39.16816 61 ft 7 kts 248°
2026-04-29 06:49 21.66680 39.16761 61 ft 8 kts 250°
2026-04-29 06:49 21.66659 39.16697 61 ft 10 kts 250°
2026-04-29 06:49 21.66635 39.16629 61 ft 11 kts 248°
2026-04-29 06:49 21.66607 39.16552 61 ft 11 kts 244°
2026-04-29 06:50 21.66589 39.16523 61 ft 3 kts 216°
2026-04-29 06:50 21.66557 39.16520 61 ft 6 kts 171°
2026-04-29 06:50 21.66503 39.16537 61 ft 9 kts 161°
2026-04-29 06:50 21.66433 39.16565 61 ft 11 kts 160°
2026-04-29 06:51 21.66373 39.16588 61 ft 6 kts 159°
2026-04-29 06:51 21.66319 39.16611 61 ft 10 kts 159°
2026-04-29 06:51 21.66245 39.16639 61 ft 9 kts 160°
2026-04-29 06:51 21.66206 39.16643 61 ft 6 kts 199°
2026-04-29 06:52 21.66181 39.16618 61 ft 8 kts 236°
2026-04-29 06:52 21.66155 39.16552 61 ft 11 kts 249°
2026-04-29 06:52 21.66146 39.16498 61 ft 6 kts 295°
2026-04-29 06:52 21.66179 39.16468 62 ft 7 kts 335°
2026-04-29 06:53 21.66217 39.16452 61 ft 6 kts 339°
2026-04-29 06:53 21.66345 39.16401 62 ft 50 kts 340°
2026-04-29 06:53 21.66812 39.16218 62 ft 106 kts 339°
2026-04-29 06:53 21.66989 39.16146 62 ft 119 kts 340°
2026-04-29 06:54 21.67506 39.15944 64 ft 149 kts 340°
2026-04-29 06:54 21.68517 39.15557 267 ft 172 kts 342°
2026-04-29 06:54 21.69522 39.15187 650 ft 185 kts 342°
2026-04-29 06:54 21.70785 39.14704 1183 ft 197 kts 340°
2026-04-29 06:55 21.72108 39.14169 1651 ft 214 kts 340°
2026-04-29 06:55 21.73458 39.13623 2160 ft 228 kts 340°
2026-04-29 06:55 21.75005 39.13002 2642 ft 242 kts 340°
2026-04-29 06:55 21.76626 39.12354 2993 ft 259 kts 340°
2026-04-29 06:56 21.78372 39.11661 3336 ft 278 kts 340°
2026-04-29 06:56 21.80256 39.10915 3684 ft 296 kts 339°
2026-04-29 06:56 21.82202 39.10144 4234 ft 306 kts 339°
2026-04-29 06:56 21.84152 39.09375 5309 ft 296 kts 339°
2026-04-29 06:57 21.86021 39.08638 6336 ft 287 kts 339°
2026-04-29 06:57 21.87892 39.07898 6985 ft 293 kts 338°
2026-04-29 06:57 21.89777 39.07129 7891 ft 288 kts 335°
2026-04-29 06:57 21.91568 39.06296 8749 ft 285 kts 334°
2026-04-29 06:58 21.93452 39.05396 9429 ft 290 kts 333°
2026-04-29 06:58 21.95470 39.04427 10180 ft 295 kts 333°
2026-04-29 06:58 21.97554 39.03428 10757 ft 306 kts 333°
2026-04-29 06:58 21.99750 39.02374 11139 ft 324 kts 333°
2026-04-29 06:59 22.02056 39.01272 11764 ft 334 kts 333°
2026-04-29 06:59 22.04371 39.00167 12594 ft 337 kts 332°
2026-04-29 06:59 22.06748 38.99033 13436 ft 341 kts 332°
2026-04-29 06:59 22.09101 38.97907 14235 ft 344 kts 332°
2026-04-29 07:00 22.11299 38.96811 14964 ft 346 kts 326°
2026-04-29 07:00 22.13196 38.95080 15710 ft 338 kts 302°
2026-04-29 07:00 22.14223 38.92892 16451 ft 331 kts 282°
2026-04-29 07:00 22.14470 38.90484 17184 ft 328 kts 263°
2026-04-29 07:01 22.13938 38.88114 17924 ft 327 kts 247°
2026-04-29 07:01 22.13015 38.85885 18654 ft 330 kts 245°
2026-04-29 07:01 22.12078 38.83691 19208 ft 336 kts 245°
2026-04-29 07:01 22.10979 38.81095 19945 ft 340 kts 245°
2026-04-29 07:02 22.10020 38.78825 20594 ft 343 kts 244°
2026-04-29 07:02 22.07403 38.75500 21634 ft 353 kts 217°
2026-04-29 07:02 22.05296 38.74382 22194 ft 363 kts 202°
2026-04-29 07:03 22.02622 38.73975 22792 ft 378 kts 184°
2026-04-29 07:03 22.00137 38.74479 23318 ft 392 kts 168°
2026-04-29 07:03 21.98041 38.75302 23784 ft 396 kts 165°
2026-04-29 07:03 21.95649 38.76306 24264 ft 400 kts 165°
2026-04-29 07:04 21.93395 38.77259 24691 ft 403 kts 165°
2026-04-29 07:04 21.91401 38.78095 25050 ft 406 kts 165°
2026-04-29 07:04 21.89886 38.78726 25316 ft 408 kts 165°
2026-04-29 07:04 21.88255 38.79401 25601 ft 410 kts 166°
2026-04-29 07:05 21.81238 38.82282 26753 ft 420 kts 166°
2026-04-29 07:05 21.78543 38.83385 27162 ft 423 kts 166°
2026-04-29 07:06 21.75825 38.84497 27561 ft 427 kts 166°
2026-04-29 07:06 21.73168 38.85582 27941 ft 430 kts 166°
2026-04-29 07:06 21.69042 38.87267 28510 ft 435 kts 166°
2026-04-29 07:07 21.58363 38.91627 29839 ft 438 kts 166°
2026-04-29 07:07 21.36225 39.00630 31206 ft 448 kts 166°
2026-04-29 07:07 21.24243 39.05495 31826 ft 453 kts 167°